Weather History for Tri-Cities, TN

Change the Weather History Date:

Thursday, May 29, 2014

  Actual Average Record
Temperature  
Mean Temperature 75 °F 67 °F  
Max Temperature 89 °F 79 °F 92 °F (1941)
Min Temperature 60 °F 55 °F 44 °F (1949)
Degree Days  
Heating Degree Days 0 1  
Month to date heating degree days 80 106  
Since 1 July heating degree days 4410 4360  
Cooling Degree Days 10 4  
Month to date cooling degree days 95 56  
Year to date cooling degree days 116 67  
Growing Degree Days 24 (Base 50)    
Moisture  
Dew Point 62 °F    
Average Humidity 64    
Maximum Humidity 93    
Minimum Humidity 34    
Precipitation  
Precipitation 0.31 in 0.13 in 1.24 in (1976)
Month to date precipitation 2.20 3.54  
Year to date precipitation 12.00 17.13  
Snow  
Snow 0.00 in 0.00 in - ()
Month to date snowfall 0.0 0.0  
Since 1 July snowfall 13.0 13.3  
Snow Depth 0.00 in    
Sea Level Pressure  
Sea Level Pressure 30.04 in    
Wind  
Wind Speed 2 mph (SSW)    
Max Wind Speed 15 mph    
Max Gust Speed 21 mph    
Visibility 6 miles    
Events Rain , Thunderstorm    
T = Trace of Precipitation, MM = Missing Value Source: NWS Daily Summary

Daily Weather History Graph

Daily Weather History Graph

Search for Another Location

Airport:

Trip Planner

Search our weather history database for the weather conditions in past years. The results will help you decide how hot, cold, wet, or windy it might be!

Date:

Astronomy

May. 29, 2014 Rise Set
Actual Time 6:14 AM EDT 8:40 PM EDT
Civil Twilight 5:44 AM EDT 9:10 PM EDT
Nautical Twilight 5:07 AM EDT 9:46 PM EDT
Astronomical Twilight 4:27 AM EDT 10:27 PM EDT
Moon 7:05 AM EDT (5/29) 9:30 PM EDT (5/29)
Length of Visible Light 15h 25m
Length of Day
14h 26m
New Moon, 1% of the Moon is Illuminated
May 29
New Moon
Jun 5
First Quarter
Jun 13
Full
Jun 19
Last Quarter
Jun 27
New

Hourly Weather History & Observations

Time (EDT) Temp. Heat Index Dew Point Humidity Pressure Visibility Wind Dir Wind Speed Gust Speed Precip Events Conditions
12:53 AM 69.1 °F - 63.0 °F 81% 30.00 in 8.0 mi Calm Calm - N/A   Mostly Cloudy
1:53 AM 66.2 °F - 62.6 °F 88% 30.07 in 6.0 mi Calm Calm - N/A   Partly Cloudy
2:53 AM 64.9 °F - 62.1 °F 90% 29.98 in 4.0 mi Calm Calm - N/A   Clear
3:28 AM 64.0 °F - 61.0 °F 90% 30.05 in 1.8 mi Calm Calm - N/A   Partly Cloudy
3:43 AM 63.0 °F - 61.0 °F 93% 30.05 in 3.0 mi Calm Calm - N/A   Partly Cloudy
3:53 AM 64.4 °F - 60.8 °F 88% 30.05 in 4.0 mi Calm Calm - N/A   Partly Cloudy
4:53 AM 62.1 °F - 60.1 °F 93% 29.97 in 3.0 mi Calm Calm - N/A   Partly Cloudy
5:53 AM 60.1 °F - 57.9 °F 93% 29.99 in 2.0 mi Calm Calm - N/A   Scattered Clouds
6:17 AM 61.0 °F - 60.1 °F 97% 30.07 in 4.0 mi Calm Calm - N/A   Scattered Clouds
6:50 AM 62.6 °F - 60.8 °F 94% 30.08 in 4.0 mi Calm Calm - N/A   Mostly Cloudy
6:53 AM 63.0 °F - 60.1 °F 90% 30.02 in 4.0 mi Calm Calm - N/A   Mostly Cloudy
7:53 AM 66.9 °F - 63.0 °F 87% 30.03 in 10.0 mi Calm Calm - N/A   Scattered Clouds
8:53 AM 71.1 °F - 63.0 °F 75% 30.04 in 10.0 mi Calm Calm - N/A   Scattered Clouds
9:53 AM 73.9 °F - 62.1 °F 66% 30.06 in 10.0 mi Calm Calm - N/A   Scattered Clouds
10:53 AM 75.9 °F - 62.1 °F 62% 30.04 in 8.0 mi Calm Calm - N/A   Scattered Clouds
11:53 AM 80.1 °F 81.1 °F 61.0 °F 52% 30.04 in 10.0 mi Calm Calm - N/A   Scattered Clouds
12:53 PM 82.9 °F 83.2 °F 60.1 °F 46% 30.02 in 10.0 mi Variable 4.6 mph - N/A   Scattered Clouds
1:53 PM 84.0 °F 83.5 °F 57.9 °F 41% 30.00 in 10.0 mi SE 3.5 mph - N/A   Scattered Clouds
2:53 PM 86.0 °F 84.9 °F 57.0 °F 37% 29.98 in 10.0 mi West 4.6 mph - N/A   Scattered Clouds
3:53 PM 87.1 °F 85.7 °F 55.9 °F 35% 29.95 in 10.0 mi NNW 6.9 mph - N/A   Mostly Cloudy
4:43 PM 81.0 °F 81.6 °F 60.1 °F 49% 30.05 in 10.0 mi East 12.7 mph 19.6 mph N/A Thunderstorm Thunderstorm
4:53 PM 78.8 °F - 59.0 °F 51% 30.05 in 10.0 mi ESE 11.5 mph 18.4 mph N/A Rain , Thunderstorm Light Thunderstorms and Rain
5:53 PM 71.6 °F - 60.8 °F 69% 30.06 in 10.0 mi Variable 5.8 mph - N/A Thunderstorm Thunderstorm
6:53 PM 70.0 °F - 64.9 °F 84% 30.01 in 5.0 mi WNW 4.6 mph - 0.04 in Rain , Thunderstorm Thunderstorms and Rain
7:53 PM 69.1 °F - 64.9 °F 87% 30.03 in 3.0 mi Calm Calm - 0.17 in Rain Rain
8:29 PM 68.0 °F - 66.0 °F 93% 30.10 in 3.0 mi Calm Calm - 0.06 in Rain Light Rain
8:53 PM 68.0 °F - 66.0 °F 93% 30.03 in 3.0 mi West 4.6 mph - 0.09 in Rain Light Rain
9:53 PM 68.0 °F - 66.0 °F 93% 30.04 in 4.0 mi SSE 3.5 mph - 0.00 in Rain Light Rain
10:02 PM 68.0 °F - 64.4 °F 88% 30.11 in 2.5 mi Calm Calm - N/A Rain Light Rain
10:53 PM 68.0 °F - 64.9 °F 90% 30.06 in 3.0 mi Calm Calm - 0.00 in   Light Drizzle
11:20 PM 68.0 °F - 64.0 °F 87% 30.11 in 2.5 mi Calm Calm - 0.01 in Rain Light Rain
11:27 PM 66.9 °F - 64.0 °F 90% 30.11 in 4.0 mi Calm Calm - 0.01 in Rain Light Rain
11:53 PM 66.9 °F - 64.0 °F 90% 30.03 in 5.0 mi Calm Calm - 0.01 in   Mostly Cloudy